Flag for U.S.A. Weather past 2 weeks in Virginia Beach, Virginia, U.S.A.

Now
75 °F

Passing clouds.


Feels Like: 73 °F
Forecast: 74 / 85 °F
Wind: 3 mph from West

Location: Virginia Beach - Oceana

Current Time: Aug 22, 2014 at 6:22:52 AM

Latest Report: Aug 22, 2014 at 5:56 AM


Visibility: 10 mi

Pressure: 29.95 "Hg

Humidity: 94%

Dew point: 73 °F

Location of Virginia BeachLocation

Historic Weather in Virginia Beach — Graph

°F

Virginia Beach temperature yesterday

Maximum temperature yesterday: 89 °F (at 2:56 PM)
Minimum temperature yesterday: 72 °F (at 12:56 AM)
Average temperature yesterday: 80 °F

Past Weeks' High & Low Weather Summary

 TemperatureHumidityPressure
High89 °F (Aug 21, 2:56 PM)97% (Aug 8, 2:56 AM)30.14 "Hg (Aug 8, 2:56 AM)
Low65 °F (Aug 8, 3:56 AM)27% (Aug 14, 1:56 PM)29.73 "Hg (Aug 13, 2:00 AM)
Average76 °F75%29.97 "Hg
* Reported Aug 7 4:56 AM — Aug 22 4:56 AM, Virginia Beach, Weather by CustomWeather, © 2014

Note: Actual official high and low records may vary slightly from our data, if they occured in-between our weather recording intervals... More about our weather records

Advertising

Virginia Beach weather history for previous 24 hours

 ConditionsComfort  
Time TempWeatherWind HumidityBarometerVisibility
4:56 AM
Aug 22
76 °FMostly cloudy.No wind88%29.94 "Hg10 mi
3:56 AM77 °FOvercast.5 mph88%29.95 "Hg10 mi
2:56 AM78 °FMostly cloudy.6 mph87%29.96 "Hg10 mi
1:56 AM77 °FOvercast.7 mph90%29.97 "Hg10 mi
12:56 AM78 °FOvercast.3 mph87%29.97 "Hg10 mi
11:56 PM
Aug 21
77 °FPassing clouds.No wind85%30.00 "Hg10 mi
10:56 PM77 °FPassing clouds.No wind82%30.01 "Hg10 mi
9:56 PM78 °FHigh level clouds.3 mph82%30.01 "Hg10 mi
8:56 PM78 °FHigh level clouds.3 mph82%30.00 "Hg10 mi
7:56 PM79 °FBroken clouds.3 mph79%30.00 "Hg10 mi
6:56 PM79 °FMore clouds than sun.7 mph79%30.00 "Hg10 mi
5:56 PM82 °FMore clouds than sun.7 mph67%30.00 "Hg10 mi
4:56 PM85 °FOvercast.7 mph59%30.00 "Hg10 mi
3:56 PM88 °FBroken clouds.7 mph54%30.01 "Hg10 mi
2:56 PM89 °FPartly sunny.7 mph50%30.00 "Hg10 mi
1:56 PM87 °FPartly sunny.5 mph51%30.02 "Hg10 mi
12:56 PM87 °FScattered clouds.9 mph63%30.02 "Hg10 mi
11:56 AM85 °FScattered clouds.8 mph72%30.02 "Hg10 mi
11:03 AM83 °FBroken clouds.3 mph77%30.03 "Hg9 mi
10:56 AM84 °FBroken clouds.7 mph74%30.04 "Hg8 mi
9:56 AM81 °FBroken clouds.6 mph82%30.04 "Hg10 mi
8:56 AM80 °FPartly sunny.6 mph87%30.03 "Hg10 mi
7:56 AM78 °FScattered clouds.7 mph90%30.02 "Hg10 mi
6:56 AM76 °FPartly cloudy.3 mph91%30.01 "Hg10 mi
Weather by CustomWeather, © 2014

See weather overviewHow to use our weather pages